SCP
0 0 0 0 0 0 0 0 0 0 0 -0 0 0 0 0 -0 0 0 0 0 0 0 0 0 0 0 0 0 0 0 -0 -1 -1 -0 0 0 0 0 0 0 0 0 0
0 0 0 0 0 0 0 0 0 0 0 0 0 0 0 0 0 0 0 0 0 0 0 0 0 0 0 1 0 0 0 -1 -0 0 0 0 0 0 0 1 1 1 1 1
-0 0 0 0 0 0 0 0 0 0 0 0 0 0 0 0 0 0 0 0 0 0 0 0 0 -0 1 1 1 1 0 0 0 1 1 0 0 1 1 1 1 1 1 1
-0 0 0 0 -0 0 0 0 0 0 0 0 0 0 0 0 0 0 0 0 0 0 0 0 0 0 0 1 1 1 1 1 2 1 1 1 1 1 1 1 1 2 1 1
0 0 0 0 0 0 0 0 0 0 0 0 0 0 0 0 0 0 0 0 0 0 0 0 0 0 1 1 2 3 2 2 2 1 1 2 1 1 1 1 1 2 2 1
0 0 0 0 0 0 0 0 0 0 0 0 0 0 0 -0 0 0 0 0 0 0 0 0 1 1 2 2 2 2 3 3 3 3 2 2 2 2 2 2 2 3 3 2
0 0 0 0 0 0 0 0 0 0 0 0 0 0 0 0 0 0 0 0 0 0 0 0 1 2 2 2 2 1 3 4 5 5 3 4 4 5 5 4 4 3 4 3
0 0 0 0 0 0 0 0 0 0 0 0 0 1 0 1 0 1 2 3 2 0 0 0 0 2 2 2 1 2 3 4 6 8 6 7 5 6 6 7 5 5 3 3
0 0 0 -0 0 0 0 0 0 1 1 2 4 3 1 1 1 0 0 1 2 2 2 0 0 1 1 2 2 3 3 4 5 8 9 8 10 8 7 7 8 5 4 3
1 0 0 0 0 0 0 0 0 0 0 0 0 0 0 0 0 0 0 0 0 0 1 0 0 2 1 1 2 3 4 4 5 9 10 11 13 10 13 11 8 6 5 2
0 0 1 0 0 0 0 0 0 0 0 0 0 0 0 0 0 0 0 0 0 0 0 0 -0 -0 0 0 1 2 4 5 7 10 11 14 7 8 9 7 6 5 3 2
0 0 0 0 0 0 0 0 0 0 0 0 0 0 0 0 0 0 0 0 0 0 0 0 0 0 -0 -0 2 2 4 11 13 16 4 0 0 0 0 0 2 0 0 0
0 0 0 0 0 0 0 0 0 0 0 0 0 0 0 0 0 0 0 0 0 0 0 0 0 -0 0 0 1 4 8 6 4 3 3 4 3 2 0 0 0 0 0 0
0 0 0 0 0 0 0 0 0 0 0 0 0 0 0 0 0 0 0 0 0 0 0 0 0 0 0 0 0 1 1 2 4 3 4 2 0 0 0 0 0 0 0 0
0 0 0 0 0 0 0 0 0 0 0 0 0 0 0 0 0 0 0 0 0 0 0 0 0 0 0 -0 0 1 2 1 1 0 0 0 0 0 0 0 0 0 0 0
0 0 0 0 0 0 0 0 0 0 0 0 0 0 0 0 0 0 0 0 0 0 0 0 0 -0 -0 -0 0 0 0 0 0 0 0 0 0 0 0 0 0 0 0 0
0 0 0 0 0 0 0 0 0 0 0 0 0 0 0 0 0 0 0 0 0 0 0 0 0 0 -0 0 0 -0 0 0 0 0 0 0 0 0 0 0 0 0 0 0
0 0 0 0 0 0 0 0 0 0 0 0 0 0 0 0 0 0 0 0 0 0 0 0 0 0 0 -0 -0 0 0 0 0 0 0 0 0 0 0 0 0 0 0 0
0 0 0 0 0 0 0 0 0 0 0 0 0 0 0 0 0 0 0 0 0 0 0 0 0 0 0 0 0 0 0 0 0 -0 0 0 0 0 0 0 0 0 0 0
0 0 0 0 0 0 0 0 0 0 0 0 0 0 0 0 0 0 0 0 0 0 0 0 0 0 0 0 0 0 0 0 0 0 0 0 0 0 0 0 0 0 0 0
0 -0 0 0 0 0 0 0 0 0 0 0 0 0 0 0 0 0 0 0 0 0 0 0 0 0 0 0 0 0 0 0 0 0 0 0 0 0 0 0 0 0 0 0
-0 -0 -0 -0 -0 -0 -0 -0 -0 0 0 0 0 0 0 0 0 0 0 0 0 0 0 0 0 0 0 0 0 0 0 0 0 0 0 0 0 0 0 0 0 0 0 0
-0 -0 -0 -0 -0 -0 -0 -0 -0 -0 -0 -0 -0 -0 0 0 0 0 0 0 0 0 0 0 0 0 0 0 0 0 0 0 0 0 0 0 0 0 0 0 0 0 0 0
-0 -0 -0 -0 -0 -0 -0 -0 -0 -0 -0 -0 -0 -0 -0 0 0 0 0 0 0 0 0 0 0 0 0 0 0 0 0 0 0 0 0 0 0 0 0 0 0 0 0 0
-0 -0 -0 -0 -0 -0 -0 -0 -0 -0 -0 -0 -0 0 0 0 0 0 0 0 0 0 0 0 0 0 0 0 0 0 0 0 0 0 0 0 0 0 0 0 0 0 0 0
-0 -0 -0 -0 -0 -0 0 0 0 0 0 0 0 0 0 0 0 0 0 0 0 0 0 0 0 0 0 0 0 0 0 0 0 0 0 0 0 0 0 0 0 0 0 0
-0 -0 0 0 0 0 0 0 0 0 0 0 0 0 0 0 0 0 0 0 0 0 0 0 0 0 0 0 0 0 0 0 0 0 0 0 0 0 0 0 0 0 0 0
Wind_Speed_500mb
14 31 36 31 26 46 38 43 32 36 25 30 21 23 23 42 33 35 51 68 81 86 93 90 81 96 104 102 103 108 112 113 112 110 95 91 97 91 84 84 85 87 86 83
12 21 26 35 38 50 48 45 33 24 17 18 30 45 21 50 53 44 47 81 98 105 111 77 78 97 97 101 103 103 107 111 111 109 102 99 99 97 90 89 86 87 88 88
11 18 28 21 59 43 40 30 35 39 18 16 19 19 28 56 67 59 53 73 84 97 114 97 102 104 105 107 110 105 102 106 110 112 106 103 103 100 96 93 88 87 86 83
9 13 15 22 24 34 40 17 17 10 20 23 31 61 73 69 50 44 45 49 76 82 94 105 103 93 90 97 114 111 106 104 107 111 108 106 106 105 101 98 93 86 82 82
5 7 20 31 15 24 20 24 13 26 21 15 48 32 29 64 73 67 64 59 48 64 86 98 97 91 95 99 110 110 110 107 107 111 112 109 107 107 105 102 94 88 78 69
9 8 12 3 26 45 10 35 23 25 23 20 19 10 20 73 74 59 61 55 51 37 42 69 93 97 98 100 104 112 114 110 107 109 112 111 106 105 104 102 94 83 68 63
18 9 17 14 47 30 14 27 14 29 26 20 14 24 37 49 24 32 40 48 42 46 47 42 61 89 97 98 102 107 108 111 110 109 111 110 107 103 100 97 85 73 66 60
13 13 18 36 27 13 23 45 3 39 32 34 26 19 18 18 12 7 8 8 22 45 42 47 60 68 84 94 83 94 108 113 108 107 108 106 106 102 94 85 76 76 72 57
17 16 7 8 17 44 38 18 23 25 34 40 41 36 27 22 13 8 4 4 7 6 9 23 49 60 81 83 93 101 105 109 109 102 99 100 103 103 93 80 83 85 75 66
12 7 8 30 43 40 32 30 36 34 43 45 54 46 45 38 31 22 11 12 18 21 24 23 19 30 55 76 88 102 108 108 107 110 104 98 100 102 102 87 90 85 75 76
9 4 10 25 25 26 22 38 60 57 58 57 52 48 45 43 34 27 19 13 12 16 26 34 36 36 32 51 73 87 99 103 106 104 99 91 85 80 82 83 80 77 72 67
14 13 14 14 23 16 18 43 53 61 63 58 52 47 38 37 34 31 24 22 25 24 25 31 38 43 50 55 51 61 82 91 90 93 97 93 86 82 70 67 76 55 35 24
12 32 65 44 20 13 47 64 64 63 59 61 51 45 42 38 34 28 31 31 28 27 27 40 47 55 58 52 62 56 66 69 82 93 91 80 79 66 59 40 16 4 13 38
58 67 37 43 8 40 47 58 67 71 66 61 57 49 39 37 32 33 37 34 31 32 31 35 36 47 51 52 36 52 69 75 80 73 77 82 65 71 45 61 58 81 70 66
35 58 77 55 43 45 44 53 64 70 67 66 61 61 53 46 41 37 31 33 38 38 39 29 42 54 55 66 57 49 50 42 42 33 33 50 35 43 41 60 100 74 66 61
49 57 58 54 50 40 45 50 56 52 59 62 61 63 63 56 51 43 42 49 56 51 46 41 40 45 34 52 46 61 61 29 79 77 32 55 34 58 72 83 73 65 68 67
52 45 63 44 43 45 39 46 52 53 47 50 50 48 43 40 45 46 45 50 50 47 46 51 52 42 45 39 11 31 64 47 46 50 60 67 62 70 77 73 74 71 67 62
62 59 39 42 43 37 35 35 40 47 52 45 43 45 46 45 40 28 28 32 40 44 48 47 36 41 45 40 45 50 54 47 51 55 54 55 58 59 57 54 55 54 53 52
50 54 51 52 46 39 37 30 26 28 31 36 41 50 51 45 39 35 26 25 32 40 41 36 33 28 37 39 35 30 29 31 36 41 43 47 46 46 48 50 54 56 55 57
50 43 44 40 46 45 42 34 31 38 37 36 32 36 41 41 38 39 40 51 51 44 30 18 21 28 31 40 42 30 25 25 27 28 29 34 44 39 37 36 35 36 41 43
61 61 60 55 57 52 50 50 53 48 42 45 54 51 46 40 35 37 48 51 46 37 35 32 36 27 13 14 11 21 24 23 19 13 13 18 21 23 24 27 25 26 26 27
80 74 69 62 63 65 59 54 48 49 50 54 51 45 46 49 46 43 46 47 37 33 36 37 34 25 21 23 15 3 5 8 8 9 11 11 15 25 27 24 23 20 23 24
80 76 73 74 72 67 62 65 60 56 48 40 40 35 35 38 41 42 41 39 39 38 41 44 35 31 34 22 21 24 21 18 16 13 12 15 16 16 21 22 18 18 22 27
67 66 63 58 53 54 57 52 54 60 60 57 50 41 38 35 40 39 34 34 35 40 45 44 45 38 33 27 21 18 20 21 19 17 14 14 14 11 10 13 12 18 23 26
57 60 59 55 53 53 48 42 39 39 39 44 46 47 42 39 39 42 39 44 39 39 41 41 42 41 39 41 35 24 14 12 11 16 18 18 18 18 16 14 12 11 14 14
55 57 54 52 49 46 46 41 43 42 40 44 45 42 38 38 34 34 32 31 33 30 35 37 36 37 37 34 32 32 29 16 16 16 7 4 13 14 18 21 22 26 26 22
52 50 47 43 42 42 39 37 36 37 34 34 38 40 37 33 34 35 35 34 33 31 32 37 36 34 32 33 32 26 24 25 19 18 17 6 6 12 11 14 24 29 30 28
Wind_Direction_500mb
311 295 292 263 261 228 213 217 214 231 199 230 212 206 216 219 217 231 228 220 215 210 221 226 233 233 232 233 230 230 231 232 232 230 231 233 234 230 230 228 229 230 232 237
295 259 265 265 255 253 228 216 227 232 214 214 225 231 238 233 243 229 240 221 220 215 220 218 230 232 232 235 233 231 231 234 234 231 229 231 233 231 231 233 229 230 233 235
286 315 321 276 238 246 247 221 195 222 200 194 250 217 224 237 241 228 234 222 216 220 216 222 229 233 233 235 236 232 233 235 234 233 229 230 232 232 231 232 233 233 232 235
264 309 230 263 217 231 230 224 197 148 203 195 208 236 238 231 229 229 225 229 225 214 212 220 225 235 240 234 231 232 233 233 232 232 233 230 231 233 233 232 232 234 233 234
225 260 294 303 283 192 197 233 215 195 208 211 220 228 254 238 237 242 248 252 239 232 232 233 236 239 237 228 228 229 231 232 236 234 233 231 231 232 233 234 233 233 234 233
163 227 249 237 325 328 243 228 194 178 198 209 131 182 243 248 248 253 246 247 241 235 241 237 232 237 231 230 228 230 233 237 238 236 233 233 233 232 233 234 234 233 231 227
210 233 281 342 332 317 186 237 180 181 193 159 175 207 239 238 219 232 246 242 239 230 236 235 235 232 230 229 231 237 237 238 235 235 235 235 234 232 232 232 230 230 227 220
223 203 256 3 344 360 314 299 121 122 122 127 121 110 126 157 173 181 179 210 237 237 243 233 225 230 233 232 240 240 237 234 235 235 234 233 233 231 229 228 223 219 219 209
202 206 179 353 309 312 325 341 354 103 124 123 106 94 92 85 89 69 42 343 326 289 268 239 236 239 235 243 242 236 232 233 235 235 238 233 229 228 224 221 218 215 209 205
140 234 208 36 351 354 5 37 65 75 96 107 104 97 91 89 82 74 37 328 310 298 291 301 289 240 244 256 252 241 238 238 235 232 229 228 231 233 222 214 214 216 212 205
161 183 166 59 360 352 32 75 78 78 85 89 92 82 86 83 79 77 63 38 2 329 316 314 316 310 290 258 245 251 249 240 231 227 219 218 216 212 213 220 222 222 220 214
190 170 108 65 334 339 93 87 84 84 79 78 76 72 66 63 57 51 43 21 8 359 341 331 316 307 314 302 272 251 245 231 218 211 206 204 196 193 210 221 226 223 205 239
156 152 118 115 149 160 90 92 92 88 83 78 73 69 62 57 48 34 31 25 10 0 348 329 314 299 288 286 290 245 227 207 201 205 192 184 183 171 151 107 357 166 196 218
144 127 95 101 142 89 92 90 93 91 86 82 77 69 69 69 63 51 43 36 24 10 356 349 348 351 331 309 268 217 197 204 192 174 163 165 168 178 192 189 264 219 176 178
118 121 119 122 107 94 88 91 87 85 89 86 83 77 71 66 59 56 50 49 44 36 34 20 358 349 334 338 244 203 179 169 150 139 131 162 190 210 235 198 202 179 159 164
106 102 106 98 90 87 81 76 78 79 84 87 90 81 75 70 62 58 54 59 60 57 51 48 36 31 14 7 214 191 112 146 212 209 179 190 191 165 172 178 173 167 171 173
100 79 85 98 90 79 73 76 77 77 80 79 82 82 80 68 61 56 60 66 63 61 60 61 55 57 54 56 116 184 201 191 175 143 160 165 163 167 169 166 168 172 173 174
94 93 102 94 79 72 65 70 69 71 67 78 78 82 79 68 58 57 57 65 69 63 55 50 55 60 66 82 94 111 123 127 124 139 154 159 158 160 156 154 163 170 173 172
84 84 81 80 76 79 82 85 89 89 75 62 64 66 68 61 56 58 63 62 56 55 52 57 58 62 65 66 83 93 103 116 144 145 149 151 151 157 166 174 182 182 184 184
87 102 99 88 84 82 82 73 72 71 71 67 77 77 70 64 56 55 60 57 51 46 39 28 46 64 67 79 84 90 92 113 140 147 167 177 172 178 189 194 197 194 195 193
81 88 84 80 78 71 69 65 75 73 72 74 68 70 68 63 61 61 61 59 50 48 48 51 50 38 8 1 23 59 63 71 79 91 139 165 186 185 182 202 208 204 189 206
73 68 72 73 71 68 71 74 74 74 77 72 69 71 65 60 60 60 54 52 51 43 48 50 42 24 18 26 38 33 337 45 83 102 124 156 176 165 166 166 155 158 175 199
71 73 72 71 75 75 74 74 81 75 79 86 70 61 68 60 54 55 48 42 38 43 50 44 36 33 27 45 64 75 88 95 90 90 127 132 134 155 161 158 162 175 183 198
67 65 65 63 58 62 65 72 76 77 78 78 74 71 75 72 70 69 62 58 53 52 53 45 39 36 43 62 67 95 101 100 116 123 122 118 112 111 129 161 184 208 212 217
73 68 65 63 63 64 65 72 73 73 76 78 73 69 66 73 80 78 73 73 65 59 56 48 42 40 41 46 56 55 84 128 149 166 164 168 169 166 161 157 169 169 175 190
70 67 68 67 66 60 62 65 67 66 64 68 70 72 74 73 68 71 65 68 72 71 69 63 54 47 48 51 49 45 40 24 6 31 85 136 207 211 205 190 185 197 203 207
69 70 69 71 77 70 69 67 67 69 64 63 67 67 70 73 72 71 68 65 62 55 50 51 52 52 51 49 47 41 33 38 45 29 23 65 300 231 227 231 232 214 207 206
Wind_Speed_850mb
14 31 36 31 26 46 38 43 32 36 25 30 21 23 23 42 33 35 51 68 81 86 93 90 81 96 104 102 103 108 112 113 112 110 95 91 97 91 84 84 85 87 86 83
12 21 26 35 38 50 48 45 33 24 17 18 30 45 21 50 53 44 47 81 98 105 111 77 78 97 97 101 103 103 107 111 111 109 102 99 99 97 90 89 86 87 88 88
11 18 28 21 59 43 40 30 35 39 18 16 19 19 28 56 67 59 53 73 84 97 114 97 102 104 105 107 110 105 102 106 110 112 106 103 103 100 96 93 88 87 86 83
9 13 15 22 24 34 40 17 17 10 20 23 31 61 73 69 50 44 45 49 76 82 94 105 103 93 90 97 114 111 106 104 107 111 108 106 106 105 101 98 93 86 82 82
5 7 20 31 15 24 20 24 13 26 21 15 48 32 29 64 73 67 64 59 48 64 86 98 97 91 95 99 110 110 110 107 107 111 112 109 107 107 105 102 94 88 78 69
9 8 12 3 26 45 10 35 23 25 23 20 19 10 20 73 74 59 61 55 51 37 42 69 93 97 98 100 104 112 114 110 107 109 112 111 106 105 104 102 94 83 68 63
18 9 17 14 47 30 14 27 14 29 26 20 14 24 37 49 24 32 40 48 42 46 47 42 61 89 97 98 102 107 108 111 110 109 111 110 107 103 100 97 85 73 66 60
13 13 18 36 27 13 23 45 3 39 32 34 26 19 18 18 12 7 8 8 22 45 42 47 60 68 84 94 83 94 108 113 108 107 108 106 106 102 94 85 76 76 72 57
17 16 7 8 17 44 38 18 23 25 34 40 41 36 27 22 13 8 4 4 7 6 9 23 49 60 81 83 93 101 105 109 109 102 99 100 103 103 93 80 83 85 75 66
12 7 8 30 43 40 32 30 36 34 43 45 54 46 45 38 31 22 11 12 18 21 24 23 19 30 55 76 88 102 108 108 107 110 104 98 100 102 102 87 90 85 75 76
9 4 10 25 25 26 22 38 60 57 58 57 52 48 45 43 34 27 19 13 12 16 26 34 36 36 32 51 73 87 99 103 106 104 99 91 85 80 82 83 80 77 72 67
14 13 14 14 23 16 18 43 53 61 63 58 52 47 38 37 34 31 24 22 25 24 25 31 38 43 50 55 51 61 82 91 90 93 97 93 86 82 70 67 76 55 35 24
12 32 65 44 20 13 47 64 64 63 59 61 51 45 42 38 34 28 31 31 28 27 27 40 47 55 58 52 62 56 66 69 82 93 91 80 79 66 59 40 16 4 13 38
58 67 37 43 8 40 47 58 67 71 66 61 57 49 39 37 32 33 37 34 31 32 31 35 36 47 51 52 36 52 69 75 80 73 77 82 65 71 45 61 58 81 70 66
35 58 77 55 43 45 44 53 64 70 67 66 61 61 53 46 41 37 31 33 38 38 39 29 42 54 55 66 57 49 50 42 42 33 33 50 35 43 41 60 100 74 66 61
49 57 58 54 50 40 45 50 56 52 59 62 61 63 63 56 51 43 42 49 56 51 46 41 40 45 34 52 46 61 61 29 79 77 32 55 34 58 72 83 73 65 68 67
52 45 63 44 43 45 39 46 52 53 47 50 50 48 43 40 45 46 45 50 50 47 46 51 52 42 45 39 11 31 64 47 46 50 60 67 62 70 77 73 74 71 67 62
62 59 39 42 43 37 35 35 40 47 52 45 43 45 46 45 40 28 28 32 40 44 48 47 36 41 45 40 45 50 54 47 51 55 54 55 58 59 57 54 55 54 53 52
50 54 51 52 46 39 37 30 26 28 31 36 41 50 51 45 39 35 26 25 32 40 41 36 33 28 37 39 35 30 29 31 36 41 43 47 46 46 48 50 54 56 55 57
50 43 44 40 46 45 42 34 31 38 37 36 32 36 41 41 38 39 40 51 51 44 30 18 21 28 31 40 42 30 25 25 27 28 29 34 44 39 37 36 35 36 41 43
61 61 60 55 57 52 50 50 53 48 42 45 54 51 46 40 35 37 48 51 46 37 35 32 36 27 13 14 11 21 24 23 19 13 13 18 21 23 24 27 25 26 26 27
80 74 69 62 63 65 59 54 48 49 50 54 51 45 46 49 46 43 46 47 37 33 36 37 34 25 21 23 15 3 5 8 8 9 11 11 15 25 27 24 23 20 23 24
80 76 73 74 72 67 62 65 60 56 48 40 40 35 35 38 41 42 41 39 39 38 41 44 35 31 34 22 21 24 21 18 16 13 12 15 16 16 21 22 18 18 22 27
67 66 63 58 53 54 57 52 54 60 60 57 50 41 38 35 40 39 34 34 35 40 45 44 45 38 33 27 21 18 20 21 19 17 14 14 14 11 10 13 12 18 23 26
57 60 59 55 53 53 48 42 39 39 39 44 46 47 42 39 39 42 39 44 39 39 41 41 42 41 39 41 35 24 14 12 11 16 18 18 18 18 16 14 12 11 14 14
55 57 54 52 49 46 46 41 43 42 40 44 45 42 38 38 34 34 32 31 33 30 35 37 36 37 37 34 32 32 29 16 16 16 7 4 13 14 18 21 22 26 26 22
52 50 47 43 42 42 39 37 36 37 34 34 38 40 37 33 34 35 35 34 33 31 32 37 36 34 32 33 32 26 24 25 19 18 17 6 6 12 11 14 24 29 30 28
Wind_Direction_850mb
311 295 292 263 261 228 213 217 214 231 199 230 212 206 216 219 217 231 228 220 215 210 221 226 233 233 232 233 230 230 231 232 232 230 231 233 234 230 230 228 229 230 232 237
295 259 265 265 255 253 228 216 227 232 214 214 225 231 238 233 243 229 240 221 220 215 220 218 230 232 232 235 233 231 231 234 234 231 229 231 233 231 231 233 229 230 233 235
286 315 321 276 238 246 247 221 195 222 200 194 250 217 224 237 241 228 234 222 216 220 216 222 229 233 233 235 236 232 233 235 234 233 229 230 232 232 231 232 233 233 232 235
264 309 230 263 217 231 230 224 197 148 203 195 208 236 238 231 229 229 225 229 225 214 212 220 225 235 240 234 231 232 233 233 232 232 233 230 231 233 233 232 232 234 233 234
225 260 294 303 283 192 197 233 215 195 208 211 220 228 254 238 237 242 248 252 239 232 232 233 236 239 237 228 228 229 231 232 236 234 233 231 231 232 233 234 233 233 234 233
163 227 249 237 325 328 243 228 194 178 198 209 131 182 243 248 248 253 246 247 241 235 241 237 232 237 231 230 228 230 233 237 238 236 233 233 233 232 233 234 234 233 231 227
210 233 281 342 332 317 186 237 180 181 193 159 175 207 239 238 219 232 246 242 239 230 236 235 235 232 230 229 231 237 237 238 235 235 235 235 234 232 232 232 230 230 227 220
223 203 256 3 344 360 314 299 121 122 122 127 121 110 126 157 173 181 179 210 237 237 243 233 225 230 233 232 240 240 237 234 235 235 234 233 233 231 229 228 223 219 219 209
202 206 179 353 309 312 325 341 354 103 124 123 106 94 92 85 89 69 42 343 326 289 268 239 236 239 235 243 242 236 232 233 235 235 238 233 229 228 224 221 218 215 209 205
140 234 208 36 351 354 5 37 65 75 96 107 104 97 91 89 82 74 37 328 310 298 291 301 289 240 244 256 252 241 238 238 235 232 229 228 231 233 222 214 214 216 212 205
161 183 166 59 360 352 32 75 78 78 85 89 92 82 86 83 79 77 63 38 2 329 316 314 316 310 290 258 245 251 249 240 231 227 219 218 216 212 213 220 222 222 220 214
190 170 108 65 334 339 93 87 84 84 79 78 76 72 66 63 57 51 43 21 8 359 341 331 316 307 314 302 272 251 245 231 218 211 206 204 196 193 210 221 226 223 205 239
156 152 118 115 149 160 90 92 92 88 83 78 73 69 62 57 48 34 31 25 10 0 348 329 314 299 288 286 290 245 227 207 201 205 192 184 183 171 151 107 357 166 196 218
144 127 95 101 142 89 92 90 93 91 86 82 77 69 69 69 63 51 43 36 24 10 356 349 348 351 331 309 268 217 197 204 192 174 163 165 168 178 192 189 264 219 176 178
118 121 119 122 107 94 88 91 87 85 89 86 83 77 71 66 59 56 50 49 44 36 34 20 358 349 334 338 244 203 179 169 150 139 131 162 190 210 235 198 202 179 159 164
106 102 106 98 90 87 81 76 78 79 84 87 90 81 75 70 62 58 54 59 60 57 51 48 36 31 14 7 214 191 112 146 212 209 179 190 191 165 172 178 173 167 171 173
100 79 85 98 90 79 73 76 77 77 80 79 82 82 80 68 61 56 60 66 63 61 60 61 55 57 54 56 116 184 201 191 175 143 160 165 163 167 169 166 168 172 173 174
94 93 102 94 79 72 65 70 69 71 67 78 78 82 79 68 58 57 57 65 69 63 55 50 55 60 66 82 94 111 123 127 124 139 154 159 158 160 156 154 163 170 173 172
84 84 81 80 76 79 82 85 89 89 75 62 64 66 68 61 56 58 63 62 56 55 52 57 58 62 65 66 83 93 103 116 144 145 149 151 151 157 166 174 182 182 184 184
87 102 99 88 84 82 82 73 72 71 71 67 77 77 70 64 56 55 60 57 51 46 39 28 46 64 67 79 84 90 92 113 140 147 167 177 172 178 189 194 197 194 195 193
81 88 84 80 78 71 69 65 75 73 72 74 68 70 68 63 61 61 61 59 50 48 48 51 50 38 8 1 23 59 63 71 79 91 139 165 186 185 182 202 208 204 189 206
73 68 72 73 71 68 71 74 74 74 77 72 69 71 65 60 60 60 54 52 51 43 48 50 42 24 18 26 38 33 337 45 83 102 124 156 176 165 166 166 155 158 175 199
71 73 72 71 75 75 74 74 81 75 79 86 70 61 68 60 54 55 48 42 38 43 50 44 36 33 27 45 64 75 88 95 90 90 127 132 134 155 161 158 162 175 183 198
67 65 65 63 58 62 65 72 76 77 78 78 74 71 75 72 70 69 62 58 53 52 53 45 39 36 43 62 67 95 101 100 116 123 122 118 112 111 129 161 184 208 212 217
73 68 65 63 63 64 65 72 73 73 76 78 73 69 66 73 80 78 73 73 65 59 56 48 42 40 41 46 56 55 84 128 149 166 164 168 169 166 161 157 169 169 175 190
70 67 68 67 66 60 62 65 67 66 64 68 70 72 74 73 68 71 65 68 72 71 69 63 54 47 48 51 49 45 40 24 6 31 85 136 207 211 205 190 185 197 203 207
69 70 69 71 77 70 69 67 67 69 64 63 67 67 70 73 72 71 68 65 62 55 50 51 52 52 51 49 47 41 33 38 45 29 23 65 300 231 227 231 232 214 207 206